Regional Weather Roundup
Issued by NWS State College, PA

Home | Current Version | Previous Version | Text Only | Print | Product List | Glossary On
Versions: 1 2 3 4 5 6 7 8 9 10 11 12 13 14 15 16 17 18 19 20 21 22 23 24 25 26 27 28 29 30 31 32 33 34 35 36 37 38 39 40 41 42 43 44 45 46 47 48 49 50
000
ASUS41 KCTP 301910
RWRCTP

REGIONAL WEATHER ROUNDUP
NATIONAL WEATHER SERVICE STATE COLLEGE PA
300 PM EDT SAT APR 30 2016

Note: "fair" indicates few or no clouds below 12,000 feet with no
significant weather and/or obstructions to visibility.

* = STATION THAT DOES NOT REPORT PRECIPITATION /E.G. RAIN...SNOW...ETC/
    THUNDER OR FOG.

PAZ002>004-007>009-013>016-020>023-029>032-302000-
WESTERN PENNSYLVANIA

CITY           SKY/WX    TMP DP  RH WIND       PRES   REMARKS
ERIE           PTSUNNY   55  44  66 NE10      30.12R
MEADVILLE      PTSUNNY   56  44  64 VRB5      30.09F
FRANKLIN*      CLOUDY    57  45  62 E10G16    30.12S
NEW CASTLE     CLOUDY    63  48  58 NE6       30.08F
BEAVER COUNTY  CLOUDY    63  46  55 CALM      30.08
BUTLER*        CLOUDY    63  48  59 E6        30.10F
PITTSBURGH INT CLOUDY    66  45  46 SW6       30.07R
PITTSBURGH     CLOUDY    65  45  48 CALM      30.06R
INDIANA*       PTSUNNY   61  48  63 SE10      30.13S
LATROBE        PTSUNNY   64  48  55 SE12      30.08S
WASHINGTON CO* CLOUDY    64  48  55 CALM      30.07S
$$

PAZ004>006-010>012-017>019-024>028-033>037-041-042-045-046-049>053-302000-
CENTRAL PENNSYLVANIA

CITY           SKY/WX    TMP DP  RH WIND       PRES   REMARKS
BRADFORD       CLOUDY    49  40  71 SE9       30.14S
DUBOIS         CLOUDY    52  43  71 VRB7      30.12F
CLEARFIELD     CLOUDY    53  43  68 NE7       30.15S
JOHNSTOWN      CLOUDY    50  43  77 SE7       30.12S
ALTOONA        CLOUDY    51  45  79 SE9       30.15F
STATE COLLEGE  CLOUDY    52  45  76 NE7       30.16F
WILLIAMSPORT   CLOUDY    56  41  57 VRB3      30.17F
SELINSGROVE    CLOUDY    56  42  59 CALM      30.19S
FT INDIANTOWN  CLOUDY    56  43  61 SE3       30.19S
CAPITAL CITY   CLOUDY    58  42  55 E6        30.18F
HARRISBURG     CLOUDY    59  45  59 SE5       30.18F
YORK           CLOUDY    57  46  66 SE3       30.18F
$$

PAZ038>040-043-044-047-048-054-055-060>062-067>071-302000-
EASTERN PENNSYLVANIA

CITY           SKY/WX    TMP DP  RH WIND       PRES   REMARKS
SCRANTON       CLOUDY    55  40  56 CALM      30.18S
MOUNT POCONO   CLOUDY    50  37  61 S7        30.18S
ALLENTOWN      CLOUDY    58  41  53 S7        30.20S
QUAKERTOWN*    CLOUDY    55  41  58 CALM      30.21F
READING        CLOUDY    58  40  51 SE5       30.19F
LANCASTER      CLOUDY    57  43  59 E3        30.19F
COATESVILLE    CLOUDY    57  43  58 SE6       30.20F
POTTSTOWN      CLOUDY    56  41  57 VRB3      30.21F
BLUE BELL      CLOUDY    55  41  58 CALM      30.20F
DOYLESTOWN     CLOUDY    56  40  55 W5        30.20S
WILLOW GROVE   NOT AVBL
NORTH PHILA    CLOUDY    61  43  51 CALM      30.21F
PHILADELPHIA   PTSUNNY   62  41  46 E5        30.21F
$$




USA.gov is the U.S. government's official web portal to all federal, state and local government web resources and services.